When you browse on this site, cookies collect data to enhance your experience and personalize the content and advertising you see.
Visit our Privacy Policy to learn more. By continuing to use the site, you agree to this use of cookies and data.
  • în România
  • Lista ţărilor
  • Pe 7 zile
  • Temperatura apei
  • Hartă satelitară
  • Meteo pe hartă
  • Widget-uri
  • user-avatar
    Intrare

    Meteo pe oră la Karamyshevo

    Astăzi, 26 Aprilie, Vineri

    Timp Temperatura Precipitaţii Vânt Presiune Umiditate
    00:00 +9°C° 0 mm 2 m/s 752 mmHg 72%
    01:00 +8°C° 0 mm 2 m/s 752 mmHg 74%
    02:00 +8°C° 0 mm 2 m/s 752 mmHg 76%
    03:00 +7°C° 0 mm 2 m/s 752 mmHg 77%
    04:00 +7°C° 0 mm 2 m/s 752 mmHg 78%
    05:00 +7°C° 0 mm 2 m/s 752 mmHg 79%
    06:00 +9°C° 0 mm 2 m/s 752 mmHg 72%
    07:00 +12°C° 0 mm 2 m/s 752 mmHg 66%
    08:00 +14°C° 0 mm 2 m/s 752 mmHg 60%
    09:00 +15°C° 0 mm 2 m/s 752 mmHg 55%
    10:00 +17°C° 0 mm 2 m/s 751 mmHg 50%
    11:00 +18°C° 0 mm 2 m/s 751 mmHg 46%
    12:00 +19°C° 0 mm 2 m/s 751 mmHg 44%
    13:00 +19°C° 0 mm 2 m/s 751 mmHg 42%
    14:00 +21°C° 0 mm 1 m/s 750 mmHg 40%
    15:00 +21°C° 0 mm 1 m/s 750 mmHg 40%
    16:00 +21°C° 0 mm 1 m/s 749 mmHg 41%
    17:00 +21°C° 0 mm 1 m/s 749 mmHg 42%
    18:00 +18°C° 0 mm 1 m/s 748 mmHg 50%
    19:00 +15°C° 0 mm 2 m/s 748 mmHg 57%
    20:00 +13°C° 0 mm 2 m/s 748 mmHg 65%
    21:00 +12°C° 0.1 mm 2 m/s 748 mmHg 67%
    22:00 +12°C° 0.1 mm 2 m/s 747 mmHg 69%
    23:00 +12°C° 0.1 mm 2 m/s 747 mmHg 71%

    Mâine, 27 Aprilie, Sâmbătă

    Timp Temperatura Precipitaţii Vânt Presiune Umiditate
    00:00 +12°C° 0.2 mm 2 m/s 747 mmHg 73%
    01:00 +12°C° 0.2 mm 2 m/s 746 mmHg 75%
    02:00 +12°C° 0.2 mm 2 m/s 746 mmHg 78%
    03:00 +12°C° 0 mm 2 m/s 746 mmHg 79%
    04:00 +12°C° 0 mm 2 m/s 745 mmHg 80%
    05:00 +12°C° 0 mm 2 m/s 745 mmHg 81%
    06:00 +13°C° 0 mm 2 m/s 744 mmHg 77%
    07:00 +14°C° 0 mm 2 m/s 744 mmHg 72%
    08:00 +16°C° 0 mm 2 m/s 744 mmHg 68%
    09:00 +17°C° 0 mm 2 m/s 743 mmHg 62%
    10:00 +18°C° 0 mm 2 m/s 743 mmHg 57%
    11:00 +19°C° 0 mm 2 m/s 743 mmHg 51%
    12:00 +20°C° 0.1 mm 2 m/s 742 mmHg 48%
    13:00 +20°C° 0.1 mm 2 m/s 742 mmHg 45%
    14:00 +21°C° 0.1 mm 2 m/s 741 mmHg 41%
    15:00 +19°C° 0.2 mm 3 m/s 741 mmHg 50%
    16:00 +18°C° 0.2 mm 3 m/s 741 mmHg 59%
    17:00 +15°C° 0.2 mm 4 m/s 740 mmHg 67%
    18:00 +14°C° 0.5 mm 4 m/s 741 mmHg 73%
    19:00 +12°C° 0.5 mm 3 m/s 741 mmHg 79%
    20:00 +10°C° 0.5 mm 3 m/s 741 mmHg 85%
    21:00 +8°C° 0.2 mm 4 m/s 742 mmHg 82%
    22:00 +7°C° 0.2 mm 4 m/s 743 mmHg 79%
    23:00 +6°C° 0.2 mm 5 m/s 743 mmHg 76%

    Poimâine, 28 Aprilie, Duminică

    Timp Temperatura Precipitaţii Vânt Presiune Umiditate
    00:00 +3°C° 0 mm 5 m/s 744 mmHg 76%
    01:00 +2°C° 0 mm 5 m/s 745 mmHg 75%
    02:00 0°C° 0 mm 5 m/s 745 mmHg 75%
    03:00 -1°C° 0 mm 5 m/s 746 mmHg 74%
    04:00 -2°C° 0 mm 5 m/s 746 mmHg 72%
    05:00 -2°C° 0 mm 5 m/s 747 mmHg 70%
    06:00 -1°C° 0 mm 5 m/s 747 mmHg 64%
    07:00 -1°C° 0 mm 5 m/s 748 mmHg 58%
    08:00 0°C° 0 mm 5 m/s 748 mmHg 53%
    09:00 +1°C° 0 mm 5 m/s 749 mmHg 48%
    10:00 +2°C° 0 mm 5 m/s 749 mmHg 44%
    11:00 +3°C° 0 mm 5 m/s 749 mmHg 40%
    12:00 +5°C° 0 mm 5 m/s 749 mmHg 38%
    13:00 +5°C° 0 mm 5 m/s 750 mmHg 37%
    14:00 +6°C° 0 mm 4 m/s 750 mmHg 35%
    15:00 +6°C° 0 mm 4 m/s 750 mmHg 35%
    16:00 +5°C° 0 mm 4 m/s 750 mmHg 36%
    17:00 +5°C° 0 mm 4 m/s 750 mmHg 36%
    18:00 +4°C° 0 mm 4 m/s 751 mmHg 41%
    19:00 +2°C° 0 mm 3 m/s 751 mmHg 46%
    20:00 +2°C° 0 mm 2 m/s 752 mmHg 51%
    21:00 +1°C° 0 mm 2 m/s 752 mmHg 54%
    22:00 -1°C° 0 mm 2 m/s 753 mmHg 56%
    23:00 -1°C° 0 mm 2 m/s 753 mmHg 59%

    29 Aprilie, Luni

    Timp Temperatura Precipitaţii Vânt Presiune Umiditate
    00:00 -2°C° 0 mm 2 m/s 753 mmHg 60%
    01:00 -2°C° 0 mm 2 m/s 754 mmHg 62%
    02:00 -3°C° 0 mm 2 m/s 754 mmHg 64%
    03:00 -3°C° 0 mm 2 m/s 754 mmHg 62%
    04:00 -3°C° 0 mm 2 m/s 754 mmHg 60%
    05:00 -2°C° 0 mm 2 m/s 754 mmHg 58%
    06:00 -1°C° 0 mm 2 m/s 754 mmHg 51%
    07:00 +2°C° 0 mm 2 m/s 754 mmHg 44%
    08:00 +3°C° 0 mm 2 m/s 754 mmHg 37%
    09:00 +4°C° 0 mm 2 m/s 754 mmHg 35%
    10:00 +6°C° 0 mm 2 m/s 754 mmHg 33%
    11:00 +7°C° 0 mm 2 m/s 754 mmHg 31%
    12:00 +7°C° 0 mm 2 m/s 753 mmHg 30%
    13:00 +9°C° 0 mm 1 m/s 753 mmHg 29%
    14:00 +10°C° 0 mm 1 m/s 753 mmHg 28%
    15:00 +9°C° 0 mm 1 m/s 752 mmHg 29%
    16:00 +9°C° 0 mm 1 m/s 752 mmHg 30%
    17:00 +9°C° 0 mm 1 m/s 751 mmHg 31%
    18:00 +7°C° 0 mm 1 m/s 751 mmHg 37%
    19:00 +5°C° 0 mm 1 m/s 751 mmHg 44%
    20:00 +3°C° 0 mm 1 m/s 751 mmHg 50%
    21:00 +3°C° 0 mm 1 m/s 751 mmHg 52%
    22:00 +1°C° 0 mm 2 m/s 750 mmHg 55%
    23:00 +1°C° 0 mm 2 m/s 750 mmHg 57%

    30 Aprilie, Marţi

    Timp Temperatura Precipitaţii Vânt Presiune Umiditate
    00:00 +1°C° 0 mm 2 m/s 750 mmHg 59%
    01:00 +1°C° 0 mm 2 m/s 750 mmHg 60%
    02:00 -1°C° 0 mm 2 m/s 750 mmHg 62%
    03:00 +1°C° 0 mm 2 m/s 749 mmHg 61%
    04:00 +1°C° 0 mm 2 m/s 749 mmHg 61%
    05:00 +1°C° 0 mm 2 m/s 749 mmHg 61%
    06:00 +3°C° 0 mm 2 m/s 748 mmHg 55%
    07:00 +5°C° 0 mm 2 m/s 748 mmHg 49%
    08:00 +6°C° 0 mm 2 m/s 747 mmHg 43%
    09:00 +7°C° 0 mm 2 m/s 747 mmHg 40%
    10:00 +9°C° 0 mm 2 m/s 746 mmHg 36%
    11:00 +10°C° 0 mm 3 m/s 746 mmHg 32%
    12:00 +10°C° 0 mm 3 m/s 746 mmHg 32%
    13:00 +11°C° 0 mm 3 m/s 745 mmHg 32%
    14:00 +11°C° 0 mm 3 m/s 745 mmHg 32%
    15:00 +10°C° 0 mm 3 m/s 744 mmHg 37%
    16:00 +10°C° 0 mm 3 m/s 744 mmHg 42%
    17:00 +9°C° 0 mm 3 m/s 744 mmHg 46%
    18:00 +8°C° 0.1 mm 3 m/s 744 mmHg 57%
    19:00 +5°C° 0.1 mm 3 m/s 744 mmHg 68%
    20:00 +5°C° 0.1 mm 2 m/s 744 mmHg 78%
    21:00 +5°C° 0.3 mm 2 m/s 744 mmHg 81%
    22:00 +4°C° 0.3 mm 2 m/s 744 mmHg 83%
    23:00 +4°C° 0.3 mm 2 m/s 744 mmHg 85%

    1 Mai, Miercuri

    Timp Temperatura Precipitaţii Vânt Presiune Umiditate
    00:00 +3°C° 0.1 mm 2 m/s 744 mmHg 86%
    01:00 +3°C° 0.1 mm 2 m/s 744 mmHg 86%
    02:00 +2°C° 0.1 mm 3 m/s 744 mmHg 87%
    03:00 +1°C° 0 mm 3 m/s 744 mmHg 88%
    04:00 0°C° 0 mm 3 m/s 744 mmHg 89%
    05:00 0°C° 0 mm 3 m/s 744 mmHg 90%
    06:00 +1°C° 0 mm 3 m/s 744 mmHg 83%
    07:00 +2°C° 0 mm 3 m/s 744 mmHg 77%
    08:00 +3°C° 0 mm 3 m/s 744 mmHg 70%
    09:00 +6°C° 0 mm 2 m/s 743 mmHg 62%
    10:00 +7°C° 0 mm 2 m/s 743 mmHg 53%
    11:00 +8°C° 0 mm 2 m/s 743 mmHg 45%
    12:00 +10°C° 0 mm 1 m/s 743 mmHg 42%
    13:00 +11°C° 0 mm 1 m/s 742 mmHg 38%
    14:00 +12°C° 0 mm 1 m/s 742 mmHg 35%
    15:00 +11°C° 0 mm 0 m/s 742 mmHg 36%
    16:00 +10°C° 0 mm 0 m/s 741 mmHg 37%
    17:00 +10°C° 0 mm 0 m/s 741 mmHg 37%
    18:00 +9°C° 0 mm 1 m/s 740 mmHg 45%
    19:00 +7°C° 0 mm 1 m/s 740 mmHg 53%
    20:00 +4°C° 0 mm 2 m/s 740 mmHg 61%
    21:00 +4°C° 0 mm 2 m/s 740 mmHg 65%
    22:00 +3°C° 0 mm 2 m/s 739 mmHg 69%
    23:00 +3°C° 0 mm 2 m/s 739 mmHg 73%
    Arată mai mult